Location: Chiroubles
(46.1812°N, 4.6660°E)
Time: 17:11:13
(UTC+00:00)

Cosmos 921 Rocket - Pass Details

Date: 15 August 2020
Orbit: 572 x 631 km, 75.8° (Epoch: 22 September)

Event Time Altitude Azimuth Distance (km) Brightness Sun altitude
Rises 19:34:53 0° 346° (NNW) 2,805 7.2 -7.9°
Reaches altitude 10° 19:37:11 10° 352° (N) 1,896 6.1 -8.2°
Maximum altitude 19:41:14 46° 66° (ENE) 773 3.3 -8.9°
Enters shadow 19:45:03 11° 140° (SE) 1,799 4.8 -9.4°
